Starlink 31964

operational
NORAD ID: 59895 Int'l Des: 2024-100 Owner: SPXS Country: US Constellation: starlink
LEOCIRCULAR

About Starlink 31964

Description loading...

Live Position

Loading 3D Globe...

Upcoming Passes

Altitude History

Altitude vs Time

uPlot chart will show altitude changes over time

Two-Line Element Set

1 59895U 24100L 25354.32890772 .00000198 00000-0 16720-4 0 9998
2 59895 43.0026 213.2447 0001351 271.0331 89.0366 15.27575422 88977
Epoch: Dec 20, 2025 • Age: 12 hours

Current Status

Altitude 490.6 km
Velocity 7.62 km/s
Sub-Earth Point -30.41°S, 41.47°E
Launch Date May 28, 2024
Age 1.5 years
Type internet

Technical Details

Classification Payload
Mass 730.00 kg
Dry Mass 700.00 kg
Total Mass 730.00 kg
Length 0.30 m
Diameter 4.10 m
Span 29.00 m
Shape Box + pan
Manufacturer SPXS
Bus Type Starlink V2M
Phase Status In Orbit
Owner/State SPXS/US

Large Constellations

Loading constellations...